Location: Newark
(46.8500°N, 5.1667°E)
Time: 12:31:24
(UTC+00:00)

ISS - Pass Details

Date: 21 September 2019
Orbit: 411 x 421 km, 51.6° (Epoch: 18 October)

Event Time Altitude Azimuth Distance (km) Brightness Sun altitude
Rises 18:30:06 0° 217° (SW) 2,332 0.4 -9.4°
Reaches altitude 10° 18:32:18 10° 207° (SSW) 1,473 -0.8 -9.7°
Maximum altitude 18:35:17 32° 143° (SE) 731 -2.9 -10.2°
Enters shadow 18:37:28 16° 86° (E) 1,187 -2.1 -10.6°
